Regional Weather Roundup
Issued by NWS

Home | Current Version | Previous Version | Text Only | Print | Product List | Glossary On
Versions: 1 2 3 4 5 6 7 8 9 10 11 12 13 14 15 16 17 18 19 20 21 22 23 24 25 26 27 28
000
ASUS45 KTFX 190810
RWRMT
MONTANA REGIONAL WEATHER ROUNDUP
NATIONAL WEATHER SERVICE GREAT FALLS MT
100 AM MST MON FEB 19 2018

NOTE: "FAIR" INDICATES FEW OR NO CLOUDS BELOW 12000 FEET WITH NO
SIGNIFICANT WEATHER AND/OR OBSTRUCTIONS TO VISIBILITY.

MTZ001>007-043-190900-
WEST OF THE DIVIDE

CITY           SKY/WX    TMP DP  RH WIND       PRES   REMARKS
KALISPELL      FAIR       5  -8  55 NE13      29.96S WCI -12
MISSOULA       FAIR       6  -6  57 E9        29.90R WCI  -8
BUTTE          CLOUDY    -4 -10  75 CALM      29.70R
MULLAN PASS    CLOUDY    -4  -7  87 E8        29.58R WCI -19
ANACONDA         N/A     -2  -9  71 MISG      29.76F
DEER LODGE       N/A     -2 -13  60 N15       29.82F WCI -22
HAMILTON         N/A      5  -4  66 MISG      29.82R
PLAINS           N/A      9  -5  53 CALM      29.97R
RONAN            N/A     -4  -8  84 S7        29.92S WCI -18
$$

MTZ008-052>055-190900-
SOUTHWEST MONTANA

CITY           SKY/WX    TMP DP  RH WIND       PRES   REMARKS
BOZEMAN        LGT SNOW   3  -4  72 SW7       29.81R WCI  -9
DILLON         CLOUDY    -6  -6 100 NE14      29.68R FOG     WCI -26
ENNIS          LGT SNOW   0  -6  78 N14       29.72S WCI -19
W YELLOWSTONE  LGT SNOW   1  -2  85 VRB6      29.48S WCI -10
THREE FORKS      N/A      3  -5  69 N8        29.83S WCI -10
TWIN BRIDGES     N/A      1 -10  60 N18       29.72S WCI -20
$$

MTZ009-010-012-014-046-048-049-054-190900-
EAST SLOPES AND CENTRAL MONTANA

CITY           SKY/WX    TMP DP  RH WIND       PRES   REMARKS
CUT BANK       CLOUDY   -10 -14  82 NW6       30.00F FOG     WCI -23
GREAT FALLS    LGT SNOW  -3  -8  79 CALM      30.02S
MALMSTROM AFB  FLURRIES  -4  -6  88 N3        30.05S
HELENA         LGT SNOW   0  -7  72 NW8       29.93F WCI -14
AUGUSTA        LGT SNOW  -6 -10  83 N9        29.93F WCI -23
BOWMANS CRNR   LGT SNOW  -7 -10  86 N8        29.93S WCI -23
FAIRFIELD      LGT SNOW  -4 -10  77 N6        29.99F WCI -17
POWER          LGT SNOW  -5 -10  81 NW6       30.00S FOG     WCI -18
RAYNESFORD     LGT SNOW  -6 -10  81 CALM      29.98S
ULM            FLURRIES  -5  -9  84 S5        30.03S
WHITE SULPHUR    N/A     -2  -9  71 E9G15     29.78F HAZE    WCI -18
$$

MTZ011-013-016-021-045-047-050-051-190900-
NORTH CENTRAL MONTANA

CITY           SKY/WX    TMP DP  RH WIND       PRES   REMARKS
HAVRE          CLOUDY    -9 -13  83 SW3       30.14F
LEWISTOWN      MOCLDY    -9 -11  91 SW9       29.95S WCI -26
N BAR RANCH    CLOUDY    -6 -15  65 N3        29.94R
CHINOOK          N/A     -2  -8  78 W3        30.16F
GEYSER         FLURRIES  -5  -9  82 E5        29.97R
STANFORD       LGT SNOW  -6 -10  86 NW3       29.93S
WINIFRED       LGT SNOW  -3  -6  86 W3        30.00S FOG
$$

MTZ017>020-022>027-061-062-190900-
NORTHEAST MONTANA

CITY           SKY/WX    TMP DP  RH WIND       PRES   REMARKS
GLASGOW        CLOUDY     0  -6  76 N10       30.13F WCI -16
GLENDIVE       FAIR      -4  -9  79 N9        30.11S WCI -20
JORDAN           N/A      0  -5  79 N7        30.09S WCI -13
MALTA          CLOUDY    -9 -15  77 CALM      30.15F
SIDNEY         FAIR      -7 -11  83 MISG        N/A
WOLF POINT     FAIR     -13 -20  71 N3        30.17F
PLENTYWOOD       N/A      0  -6  78 CALM      30.14R
POPLAR           N/A    -15 -20  76 N5        30.18F
SCOBEY           N/A     -3 -13  62 CALM      30.10R
$$

MTZ028>42-056>058-190900-
SOUTHCENTRAL AND SOUTHEAST MONTANA

CITY           SKY/WX    TMP DP  RH WIND       PRES   REMARKS
BAKER          FAIR       1  -3  83 N7        30.03S WCI -12
BILLINGS       LGT SNOW   0  -3  87 NE9       29.98R FOG     WCI -15
LIVINGSTON     MIX PCPN   0  -5  79 E23       29.81R WCI -23
MILES CITY     CLOUDY     1  -3  83 N8        30.09R WCI -13
BIG TIMBER     CLOUDY    -2  -8  78 E10       29.91S HAZE    WCI -19
EKALAKA          N/A      1  -6  72 N5        29.95R
FORSYTH          N/A      1  -2  85 N6        30.06F WCI -10
HARLOWTON      FLURRIES  -3  -7  84 E8        29.91S WCI -18
LAUREL           N/A      1  -4  78 NE10      30.00R HAZE    WCI -14
$$

REGIONAL REPORTS...DAKOTAS

CITY           SKY/WX    TMP DP  RH WIND       PRES   REMARKS
WILLISTON      FAIR     -18 -24  74 N3        30.17S
MINOT          FAIR      -5 -15  62 NW8       30.16F WCI -20
DICKINSON      FAIR       1  -7  68 N9        30.02F WCI -14
BEACH          MOCLDY    -2  -6  84 N12       30.07F WCI -20
CROSBY         FAIR     -13 -18  77 SW9       30.16S WCI -31
TIOGA          FAIR     -13 -17  84 NW6       30.13F WCI -27
BISMARCK       CLOUDY     6  -5  60 N13       30.11F WCI -10
GRAND FORKS    FAIR       5  -2  72 N17       30.16S WCI -14
FARGO          CLOUDY     9   3  77 N23       30.08R WCI -11
BUFFALO SD       N/A      4  -1  80 N7        29.93R WCI  -8
RAPID CITY     LGT SNOW   3  -1  83 N20       29.96R FOG     WCI -18
$$

REGIONAL REPORTS...WYOMING/IDAHO/WASHINGTON

CITY           SKY/WX    TMP DP  RH WIND       PRES   REMARKS
GILLETTE       CLOUDY     0  -4  83 N15       29.83F FOG     WCI -19
SHERIDAN       CLOUDY     2  -2  83 CALM      29.92R
BUFFALO WY     CLOUDY     1  -4  79 NW7       29.82R WCI -12
CODY           CLOUDY    -1  -8  72 E5        29.80R
YELLOWSTONE LA   N/A      6   3  87 CALM      29.43F
IDAHO FALLS    CLOUDY    25  20  81 SW10      29.49F WCI  15
SALMON         CLOUDY    16   4  59 NW12G22   29.65R WCI   3
BOISE          FAIR      24  19  81 CALM      29.64S
SPOKANE        MOCLDY    13   1  59 NE17      29.85R WCI  -4
$$

REGIONAL REPORTS...ALBERTA

CITY           SKY/WX    TMP DP  RH WIND       PRES   REMARKS
CALGARY        CLOUDY    -2  -6  84 SW5       30.02F
CARDSTON         N/A    -13 -18  77 E2          N/A
EDMONTON       CLOUDY     3  -9  55 SW8       30.07F WCI -10
FORT MCMURRAY  MOCLDY     0  -6  78 SW5       29.99F
HIGH LEVEL     FLURRIES  14   5  67 NW5       29.95S
LETHBRIDGE     PTCLDY   -15 -20  76 SW9       30.10S WCI -33
LLOYDMINSTER   CLEAR    -11 -15  84 W10       30.07S WCI -30
MEDICINE HAT   CLEAR    -13 -18  77 SW6       30.17S WCI -27
MILK RIVER       N/A    -11 -15  84 NW8         N/A  WCI -28
ONEFOUR          N/A    -11 -15  84 N8          N/A  WCI -28
PEACE RIVER    MOCLDY     5  -4  66 W14       30.04F WCI -12
PINCHER CREEK  FLURRIES  -8 -11  84 NW5       30.01S
WATERTON GATE    N/A     -9 -15  77 CALM        N/A
$$

REGIONAL REPORTS...SASKATCHEWAN

CITY           SKY/WX    TMP DP  RH WIND       PRES   REMARKS
CORONACH         N/A    -15 -18  84 NW5         N/A
CYPRESS HILLS    N/A     -6 -11  77 NW1         N/A
ESTEVAN        PTCLDY   -20 -26  76 S5        30.15S
MOOSE JAW        N/A     -9 -15  77 W7          N/A  WCI -24
PRINCE ALBERT  CLEAR    -26 -33  68 CALM      30.17S
REGINA         MOCLDY   -17 -22  76 W8        30.15R WCI -34
ROCKGLEN         N/A     -8 -11  84 W3          N/A
SASKATOON      CLEAR    -17 -22  76 SW10      30.16S WCI -37
SWIFT CURRENT  FLURRIES -15 -20  76 SW12      30.07S WCI -36
VAL MARIE        N/A    -15 -18  84 N5          N/A
$$




USA.gov is the U.S. government's official web portal to all federal, state and local government web resources and services.